Location: Igloolik
(69.3800°N, 81.8000°W)
Time: 21:21:21
(UTC-05:00)

Amateur Radio Satellites - All Passes

Search period start: 02 September 2014 20:51
Search period end: 03 September 2014 20:51
Location: Igloolik, 69.3800°N, 81.8000°W

Satellite Date Start Highest point End Downlink Frequencies (MHz)
Time Altitude Azimuth
KITSAT 1 02 Sep 21:03:39 21:05:17 11° 90° (E) 21:06:55 435.175 FM
Sapphire 02 Sep 21:04:08 21:09:33 70° 184° (S) 21:14:59 437.095 MHz 1200 baud AX-25 AFSK
HO-68 02 Sep 21:27:37 21:34:10 37° 268° (W) 21:40:45 435.675 MHz FM
PCSat 02 Sep 21:33:16 21:38:40 67° 192° (SSW) 21:44:05 145.825 MHz
UKube-1 02 Sep 21:36:42 21:40:34 31° 266° (W) 21:44:28 145.840 MHz, 145.915 MHz
Oscar 11 02 Sep 21:38:56 21:43:03 39° 263° (W) 21:47:12 145.825 FM, Beacon 2401.500 USB
MaSat-1 02 Sep 21:43:34 21:47:01 19° 247° (WSW) 21:50:14 437.345 MHz
OPAL 02 Sep 21:54:01 21:58:27 29° 349° (NNW) 22:02:53 ?
Saudisat 1A 02 Sep 22:04:47 22:06:49 13° 124° (SE) 22:08:51 436.775 MHz
STRAND 1 02 Sep 22:04:48 22:09:36 42° 318° (NW) 22:14:23 ?
FUNcube-1 02 Sep 22:13:41 22:17:46 41° 262° (W) 22:21:58 145.950 - 145.970 MHz USB
Sapphire 02 Sep 22:47:26 22:52:43 53° 208° (SSW) 22:58:00 437.095 MHz 1200 baud AX-25 AFSK
KITSAT 1 02 Sep 22:51:30 22:57:58 28° 116° (ESE) 23:04:26 435.175 FM
PCSat 02 Sep 23:16:34 23:21:42 44° 216° (SW) 23:26:51 145.825 MHz
UKube-1 02 Sep 23:17:54 23:18:13 10° 289° (WNW) 23:18:31 145.840 MHz, 145.915 MHz
Oscar 11 02 Sep 23:18:22 23:20:28 13° 286° (WNW) 23:22:35 145.825 FM, Beacon 2401.500 USB
HO-68 02 Sep 23:20:06 23:24:13 16° 294° (WNW) 23:28:22 435.675 MHz FM
OPAL 02 Sep 23:31:54 23:36:20 29° 12° (NNE) 23:40:48 ?
Saudisat 1A 02 Sep 23:41:28 23:45:16 28° 147° (SSE) 23:49:04 436.775 MHz
STRAND 1 02 Sep 23:43:49 23:47:57 25° 342° (NNW) 23:52:04 ?
FUNcube-1 02 Sep 23:53:11 23:55:24 14° 286° (WNW) 23:57:39 145.950 - 145.970 MHz USB
Oscar 16 02 Sep 23:56:57 23:59:14 13° 69° (ENE) 00:01:32 437.025 USB, Beacon 2401.1428
Sapphire 03 Sep 00:30:50 00:35:22 28° 232° (SW) 00:39:54 437.095 MHz 1200 baud AX-25 AFSK
AO-27 03 Sep 00:31:45 00:33:38 12° 68° (ENE) 00:35:31 436.795 MHz FM
KITSAT 1 03 Sep 00:44:10 00:51:54 51° 142° (SE) 00:59:37 435.175 FM
JAS-1B 03 Sep 00:51:19 00:56:36 20° 67° (ENE) 01:01:20 435.800 - 435.900 CW/SSB
Oscar 19 03 Sep 00:59:59 01:04:12 24° 84° (E) 01:08:23 437.125 CW, 437.150 USB
PCSat 03 Sep 01:00:07 01:04:07 21° 240° (WSW) 01:08:06 145.825 MHz
AO-Echo 03 Sep 01:00:49 01:03:36 15° 76° (ENE) 01:06:22 ?
OPAL 03 Sep 01:09:33 01:14:27 44° 36° (NE) 01:19:23 ?
Gurwin Techsat 1B 03 Sep 01:18:37 01:21:22 14° 70° (ENE) 01:24:06 435.225 FM
Saudisat 1A 03 Sep 01:20:00 01:24:13 44° 170° (S) 01:28:26 436.775 MHz
STRAND 1 03 Sep 01:22:03 01:25:59 23° 6° (N) 01:29:55 ?
AO-7 03 Sep 01:32:16 01:34:25 11° 50° (NE) 01:36:34 29.400 - 29.500 MHz
Oscar 16 03 Sep 01:35:28 01:40:15 34° 93° (E) 01:44:59 437.025 USB, Beacon 2401.1428
Oscar 10/S400 03 Sep 01:37:10 02:14:47 19° 213° (SSW) 04:13:14 145.825 - 145.975 CW/USB, Beacon 145.810 USB
ITAMSAT 1 03 Sep 01:40:14 01:44:25 24° 85° (E) 01:48:34 435.822 SSB
Uribyol 2 03 Sep 01:49:16 01:53:40 27° 87° (E) 01:58:03 436.500 FM
TMSAT-1 03 Sep 02:07:30 02:11:21 20° 79° (ENE) 02:15:11 436.925 FM
AO-27 03 Sep 02:10:12 02:14:52 32° 92° (E) 02:19:31 436.795 MHz FM
Sapphire 03 Sep 02:15:59 02:17:12 11° 256° (WSW) 02:18:26 437.095 MHz 1200 baud AX-25 AFSK
KITSAT 1 03 Sep 02:38:40 02:46:42 70° 169° (S) 02:54:44 435.175 FM
AO-Echo 03 Sep 02:39:06 02:43:39 44° 100° (E) 02:48:10 ?
Oscar 19 03 Sep 02:39:18 02:44:32 64° 107° (ESE) 02:49:43 437.125 CW, 437.150 USB
JAS-1B 03 Sep 02:42:09 02:49:26 49° 96° (E) 02:55:34 435.800 - 435.900 CW/SSB
OPAL 03 Sep 02:47:56 02:53:07 89° 238° (WSW) 02:58:23 ?
Gurwin Techsat 1B 03 Sep 02:57:59 03:02:56 37° 94° (E) 03:07:52 435.225 FM
SO-50 03 Sep 02:58:30 03:00:31 13° 121° (ESE) 03:02:34 436.795 FM
Saudisat 1A 03 Sep 02:59:09 03:03:21 43° 193° (SSW) 03:07:33 436.775 MHz
STRAND 1 03 Sep 02:59:41 03:04:08 31° 30° (NNE) 03:08:35 ?
Oscar 16 03 Sep 03:14:57 03:20:13 90° 296° (WNW) 03:25:27 437.025 USB, Beacon 2401.1428
ITAMSAT 1 03 Sep 03:19:42 03:24:54 64° 108° (ESE) 03:30:04 435.822 SSB
AO-7 03 Sep 03:24:08 03:30:53 26° 79° (E) 03:37:35 29.400 - 29.500 MHz
Uribyol 2 03 Sep 03:28:47 03:34:00 72° 111° (ESE) 03:39:13 436.500 FM
Uosat F 03 Sep 03:32:35 03:36:13 20° 81° (E) 03:39:50 435.120 FM
TMSAT-1 03 Sep 03:47:17 03:52:30 53° 102° (ESE) 03:57:41 436.925 FM
AO-27 03 Sep 03:49:49 03:55:04 86° 115° (ESE) 04:00:17 436.795 MHz FM
AO-Echo 03 Sep 04:18:03 04:22:45 66° 303° (WNW) 04:27:25 ?
Oscar 19 03 Sep 04:18:50 04:23:55 53° 311° (NW) 04:28:59 437.125 CW, 437.150 USB
JAS-2 03 Sep 04:26:33 04:29:01 13° 70° (ENE) 04:31:31 435.800 - 435.900 CW/SSB, 435.910 FM
OPAL 03 Sep 04:27:55 04:32:37 34° 262° (W) 04:37:23 ?
JAS-1B 03 Sep 04:33:02 04:40:44 78° 304° (NW) 04:47:08 435.800 - 435.900 CW/SSB
KITSAT 1 03 Sep 04:33:47 04:41:48 67° 197° (SSW) 04:49:47 435.175 FM
SO-50 03 Sep 04:35:55 04:39:51 29° 144° (SE) 04:43:53 436.795 FM
STRAND 1 03 Sep 04:37:44 04:42:46 61° 53° (NE) 04:47:49 ?
Gurwin Techsat 1B 03 Sep 04:38:07 04:43:28 85° 298° (WNW) 04:48:49 435.225 FM
Saudisat 1A 03 Sep 04:38:33 04:42:16 27° 216° (SW) 04:45:58 436.775 MHz
UOSAT-12 03 Sep 04:38:37 04:40:25 12° 120° (ESE) 04:42:14 437.025 FM, 437.400 FM
Oscar 16 03 Sep 04:54:27 04:59:19 41° 319° (NW) 05:04:10 437.025 USB, Beacon 2401.1428
ITAMSAT 1 03 Sep 04:59:24 05:04:27 53° 311° (NW) 05:09:29 435.822 SSB
Uribyol 2 03 Sep 05:08:27 05:13:26 48° 314° (NW) 05:18:26 436.500 FM
Uosat F 03 Sep 05:11:11 05:16:08 54° 104° (ESE) 05:21:03 435.120 FM
AO-7 03 Sep 05:17:27 05:25:39 57° 106° (ESE) 05:33:47 29.400 - 29.500 MHz
TMSAT-1 03 Sep 05:27:24 05:32:40 63° 306° (NW) 05:37:54 436.925 FM
AO-27 03 Sep 05:29:30 05:34:23 42° 318° (NW) 05:39:15 436.795 MHz FM
Hamsat 03 Sep 05:30:14 05:33:48 23° 86° (E) 05:37:19 145.90 MHz
AO-Echo 03 Sep 05:56:57 06:01:04 30° 326° (NW) 06:05:08 ?
Oscar 19 03 Sep 05:58:09 06:02:35 29° 334° (NNW) 06:07:00 437.125 CW, 437.150 USB
RS-15 03 Sep 06:01:27 06:08:56 22° 100° (E) 06:16:26 29.354 - 29.394 USB, Beacon 29.352 USB
OPAL 03 Sep 06:10:54 06:13:07 13° 286° (WNW) 06:15:22 ?
JAS-2 03 Sep 06:11:00 06:15:50 37° 95° (E) 06:20:49 435.800 - 435.900 CW/SSB, 435.910 FM
UOSAT-12 03 Sep 06:15:20 06:19:18 27° 142° (SE) 06:23:18 437.025 FM, 437.400 FM
SO-50 03 Sep 06:15:20 06:19:45 45° 168° (SSE) 06:24:16 436.795 FM
STRAND 1 03 Sep 06:17:10 06:22:10 53° 256° (WSW) 06:27:11 ?
Gurwin Techsat 1B 03 Sep 06:18:13 06:23:08 39° 321° (NW) 06:28:03 435.225 FM
Saudisat 1A 03 Sep 06:19:07 06:20:39 12° 238° (WSW) 06:22:10 436.775 MHz
JAS-1B 03 Sep 06:23:27 06:30:48 45° 332° (NNW) 06:37:01 435.800 - 435.900 CW/SSB
KITSAT 1 03 Sep 06:28:53 06:36:27 46° 223° (SW) 06:44:00 435.175 FM
Oscar 16 03 Sep 06:33:35 06:37:47 25° 343° (NNW) 06:41:59 437.025 USB, Beacon 2401.1428
ITAMSAT 1 03 Sep 06:38:52 06:43:16 29° 335° (NNW) 06:47:41 435.822 SSB
Uribyol 2 03 Sep 06:47:50 06:52:10 28° 338° (NNW) 06:56:31 436.500 FM
Uosat F 03 Sep 06:50:09 06:55:06 60° 307° (NW) 07:00:02 435.120 FM
HO-68 03 Sep 06:50:20 06:53:26 13° 59° (ENE) 06:56:32 435.675 MHz FM
SO-67 03 Sep 07:00:19 07:03:11 23° 90° (E) 07:06:01 435.3500 MHz FM
Hamsat 03 Sep 07:06:04 07:10:29 73° 109° (ESE) 07:14:51 145.90 MHz
TMSAT-1 03 Sep 07:07:22 07:12:02 32° 329° (NNW) 07:16:41 436.925 FM
AO-27 03 Sep 07:08:50 07:13:03 26° 342° (NNW) 07:17:17 436.795 MHz FM
AO-7 03 Sep 07:10:41 07:19:01 79° 312° (NW) 07:27:18 29.400 - 29.500 MHz
AO-Echo 03 Sep 07:35:22 07:38:50 20° 350° (N) 07:42:16 ?
Oscar 19 03 Sep 07:36:48 07:40:48 23° 358° (N) 07:44:48 437.125 CW, 437.150 USB
UOSAT-12 03 Sep 07:54:16 07:58:45 44° 165° (SSE) 08:03:16 437.025 FM, 437.400 FM
SO-50 03 Sep 07:55:24 07:59:52 45° 191° (S) 08:04:25 436.795 FM
JAS-2 03 Sep 07:56:21 08:01:33 81° 299° (WNW) 08:06:55 435.800 - 435.900 CW/SSB, 435.910 FM
Gurwin Techsat 1B 03 Sep 07:57:54 08:02:11 25° 345° (NNW) 08:06:28 435.225 FM
STRAND 1 03 Sep 07:58:52 08:02:32 19° 280° (W) 08:06:12 ?
RS-15 03 Sep 08:08:20 08:18:20 44° 129° (SE) 08:28:23 29.354 - 29.394 USB, Beacon 29.352 USB
Oscar 16 03 Sep 08:11:55 08:15:58 23° 7° (N) 08:20:00 437.025 USB, Beacon 2401.1428
JAS-1B 03 Sep 08:12:59 08:20:12 36° 359° (N) 08:26:22 435.800 - 435.900 CW/SSB
ITAMSAT 1 03 Sep 08:17:39 08:21:40 23° 359° (N) 08:25:40 435.822 SSB
KITSAT 1 03 Sep 08:24:12 08:30:08 23° 249° (WSW) 08:36:04 435.175 FM
Uribyol 2 03 Sep 08:26:31 08:30:31 23° 2° (N) 08:34:32 436.500 FM
Uosat F 03 Sep 08:28:59 08:33:20 30° 331° (NNW) 08:37:40 435.120 FM
SO-67 03 Sep 08:33:11 08:36:42 89° 291° (WNW) 08:40:11 435.3500 MHz FM
HO-68 03 Sep 08:37:32 08:43:48 31° 86° (E) 08:50:02 435.675 MHz FM
Hamsat 03 Sep 08:42:13 08:46:20 40° 311° (NW) 08:50:25 145.90 MHz
TMSAT-1 03 Sep 08:46:45 08:50:53 24° 353° (N) 08:55:01 436.925 FM
AO-27 03 Sep 08:47:23 08:51:25 24° 6° (N) 08:55:28 436.795 MHz FM
AO-7 03 Sep 09:03:24 09:11:22 53° 339° (NNW) 09:19:18 29.400 - 29.500 MHz
UKube-1 03 Sep 09:09:44 09:13:14 23° 88° (E) 09:16:43 145.840 MHz, 145.915 MHz
Oscar 11 03 Sep 09:11:45 09:15:06 21° 84° (E) 09:18:25 145.825 FM, Beacon 2401.500 USB
AO-Echo 03 Sep 09:12:52 09:16:26 21° 14° (NNE) 09:19:57 ?
Oscar 19 03 Sep 09:14:40 09:18:59 27° 22° (NNE) 09:23:19 437.125 CW, 437.150 USB
UOSAT-12 03 Sep 09:33:55 09:38:28 47° 189° (S) 09:43:01 437.025 FM, 437.400 FM
SO-50 03 Sep 09:35:43 09:39:48 30° 214° (SW) 09:43:57 436.795 FM
Gurwin Techsat 1B 03 Sep 09:36:46 09:40:57 24° 9° (N) 09:45:08 435.225 FM
JAS-2 03 Sep 09:41:39 09:46:22 36° 323° (NW) 09:51:10 435.800 - 435.900 CW/SSB, 435.910 FM
FUNcube-1 03 Sep 09:47:48 09:51:18 22° 84° (E) 09:54:49 145.950 - 145.970 MHz USB
Oscar 16 03 Sep 09:49:41 09:54:16 32° 31° (NNE) 09:58:51 437.025 USB, Beacon 2401.1428
ITAMSAT 1 03 Sep 09:55:42 10:00:02 28° 23° (NNE) 10:04:23 435.822 SSB
JAS-1B 03 Sep 10:01:42 10:09:33 43° 25° (NNE) 10:16:14 435.800 - 435.900 CW/SSB
Uribyol 2 03 Sep 10:04:29 10:08:54 29° 26° (NNE) 10:13:19 436.500 FM
SO-67 03 Sep 10:06:29 10:09:28 27° 314° (NW) 10:12:27 435.3500 MHz FM
Uosat F 03 Sep 10:07:15 10:11:05 23° 355° (N) 10:14:55 435.120 FM
Hamsat 03 Sep 10:18:15 10:21:31 21° 334° (NNW) 10:24:47 145.90 MHz
RS-15 03 Sep 10:18:33 10:29:17 66° 160° (SSE) 10:40:09 29.354 - 29.394 USB, Beacon 29.352 USB
TMSAT-1 03 Sep 10:25:18 10:29:37 26° 18° (NNE) 10:33:55 436.925 FM
AO-27 03 Sep 10:25:21 10:29:53 32° 30° (NNE) 10:34:27 436.795 MHz FM
HO-68 03 Sep 10:25:36 10:32:47 70° 112° (ESE) 10:39:57 435.675 MHz FM
UKube-1 03 Sep 10:45:49 10:50:11 71° 111° (ESE) 10:54:32 145.840 MHz, 145.915 MHz
Oscar 11 03 Sep 10:47:44 10:52:07 64° 107° (ESE) 10:56:29 145.825 FM, Beacon 2401.500 USB
AO-Echo 03 Sep 10:49:58 10:54:16 33° 38° (NE) 10:58:31 ?
Oscar 19 03 Sep 10:52:35 10:57:33 47° 46° (NE) 11:02:33 437.125 CW, 437.150 USB
AO-7 03 Sep 10:55:22 11:03:11 48° 6° (N) 11:10:59 29.400 - 29.500 MHz
UOSAT-12 03 Sep 11:13:49 11:18:01 32° 212° (SSW) 11:22:12 437.025 FM, 437.400 FM
Gurwin Techsat 1B 03 Sep 11:15:09 11:19:54 34° 33° (NNE) 11:24:39 435.225 FM
SO-50 03 Sep 11:16:49 11:19:12 14° 237° (WSW) 11:21:37 436.795 FM
FUNcube-1 03 Sep 11:24:02 11:28:31 64° 107° (ESE) 11:33:04 145.950 - 145.970 MHz USB
JAS-2 03 Sep 11:26:25 11:30:32 24° 349° (N) 11:34:39 435.800 - 435.900 CW/SSB, 435.910 FM
Oscar 16 03 Sep 11:27:56 11:33:04 64° 55° (NE) 11:38:15 437.025 USB, Beacon 2401.1428
ITAMSAT 1 03 Sep 11:33:49 11:38:48 49° 47° (NE) 11:43:48 435.822 SSB
SO-67 03 Sep 11:39:55 11:41:40 13° 336° (NNW) 11:43:25 435.3500 MHz FM
Uribyol 2 03 Sep 11:42:41 11:47:42 54° 49° (NE) 11:52:46 436.500 FM
Uosat F 03 Sep 11:44:41 11:48:44 25° 19° (NNE) 11:52:47 435.120 FM
MaSat-1 03 Sep 11:46:02 11:48:45 15° 107° (ESE) 11:51:26 437.345 MHz
JAS-1B 03 Sep 11:50:41 11:59:27 67° 50° (NE) 12:06:49 435.800 - 435.900 CW/SSB
Hamsat 03 Sep 11:53:39 11:56:18 16° 357° (N) 11:58:58 145.90 MHz
TMSAT-1 03 Sep 12:03:42 12:08:39 42° 41° (NE) 12:13:38 436.925 FM
AO-27 03 Sep 12:03:45 12:08:52 63° 54° (NE) 12:14:01 436.795 MHz FM
HO-68 03 Sep 12:13:34 12:20:37 63° 317° (NW) 12:27:40 435.675 MHz FM
UKube-1 03 Sep 12:22:11 12:26:19 42° 313° (NW) 12:30:25 145.840 MHz, 145.915 MHz
Oscar 11 03 Sep 12:24:05 12:28:17 45° 309° (NW) 12:32:29 145.825 FM, Beacon 2401.500 USB
AO-Echo 03 Sep 12:27:50 12:32:42 77° 61° (ENE) 12:37:28 ?
RS-15 03 Sep 12:30:10 12:40:58 70° 191° (S) 12:51:59 29.354 - 29.394 USB, Beacon 29.352 USB
Oscar 19 03 Sep 12:31:36 12:36:49 75° 249° (WSW) 12:42:05 437.125 CW, 437.150 USB
AO-7 03 Sep 12:47:01 12:55:09 61° 32° (NNE) 13:03:17 29.400 - 29.500 MHz
Gurwin Techsat 1B 03 Sep 12:54:05 12:59:23 70° 57° (ENE) 13:04:42 435.225 FM
UOSAT-12 03 Sep 12:54:20 12:57:04 15° 235° (SW) 12:59:46 437.025 FM, 437.400 FM
FUNcube-1 03 Sep 13:00:37 13:04:54 46° 309° (NW) 13:09:16 145.950 - 145.970 MHz USB
Oscar 16 03 Sep 13:07:36 13:12:41 51° 258° (WSW) 13:17:47 437.025 USB, Beacon 2401.1428
JAS-2 03 Sep 13:10:14 13:14:28 25° 15° (NNE) 13:18:38 435.800 - 435.900 CW/SSB, 435.910 FM
ITAMSAT 1 03 Sep 13:13:05 13:18:16 71° 250° (WSW) 13:23:29 435.822 SSB
SO-67 03 Sep 13:13:15 13:13:32 10° 359° (N) 13:13:48 435.3500 MHz FM
MaSat-1 03 Sep 13:19:58 13:24:36 35° 129° (SE) 13:29:08 437.345 MHz
Uosat F 03 Sep 13:22:00 13:26:42 42° 42° (NE) 13:31:25 435.120 FM
Uribyol 2 03 Sep 13:22:07 13:27:15 63° 252° (WSW) 13:32:26 436.500 FM
Hamsat 03 Sep 13:27:59 13:31:03 19° 21° (NNE) 13:34:07 145.90 MHz
JAS-1B 03 Sep 13:41:14 13:50:15 67° 253° (WSW) 13:57:50 435.800 - 435.900 CW/SSB
TMSAT-1 03 Sep 13:43:01 13:48:21 88° 246° (WSW) 13:53:42 436.925 FM
AO-27 03 Sep 13:43:33 13:48:37 52° 257° (WSW) 13:53:43 436.795 MHz FM
UKube-1 03 Sep 13:58:26 14:01:48 22° 336° (NNW) 14:05:09 145.840 MHz, 145.915 MHz
Oscar 11 03 Sep 14:00:22 14:03:47 23° 332° (NNW) 14:07:11 145.825 FM, Beacon 2401.500 USB
HO-68 03 Sep 14:01:02 14:07:37 42° 342° (NNW) 14:14:12 435.675 MHz FM
AO-Echo 03 Sep 14:07:23 14:11:55 38° 264° (W) 14:16:23 ?
Oscar 19 03 Sep 14:12:34 14:17:00 28° 272° (W) 14:21:28 437.125 CW, 437.150 USB
Gurwin Techsat 1B 03 Sep 14:34:34 14:39:42 47° 260° (W) 14:44:51 435.225 FM
FUNcube-1 03 Sep 14:37:06 14:40:36 23° 331° (NNW) 14:44:10 145.950 - 145.970 MHz USB
AO-7 03 Sep 14:39:30 14:47:52 83° 238° (WSW) 14:56:15 29.400 - 29.500 MHz
RS-15 03 Sep 14:41:54 14:52:16 52° 221° (SW) 15:02:54 29.354 - 29.394 USB, Beacon 29.352 USB
SO-67 03 Sep 14:43:47 14:45:22 13° 22° (NNE) 14:46:58 435.3500 MHz FM
Oscar 16 03 Sep 14:49:35 14:53:15 19° 281° (WNW) 14:56:57 437.025 USB, Beacon 2401.1428
JAS-2 03 Sep 14:53:42 14:58:42 40° 40° (NE) 15:03:31 435.800 - 435.900 CW/SSB, 435.910 FM
ITAMSAT 1 03 Sep 14:54:20 14:58:39 26° 273° (W) 15:03:00 435.822 SSB
MaSat-1 03 Sep 14:56:04 15:01:12 68° 151° (SSE) 15:06:07 437.345 MHz
Uosat F 03 Sep 15:00:16 15:05:19 84° 245° (WSW) 15:10:22 435.120 FM
Hamsat 03 Sep 15:02:11 15:06:07 33° 44° (NE) 15:10:04 145.90 MHz
Uribyol 2 03 Sep 15:03:38 15:07:44 23° 276° (W) 15:11:52 436.500 FM
TMSAT-1 03 Sep 15:24:09 15:28:56 34° 268° (W) 15:33:46 436.925 FM
AO-27 03 Sep 15:25:39 15:29:21 19° 281° (W) 15:33:03 436.795 MHz FM
Sapphire 03 Sep 15:28:51 15:31:11 13° 108° (ESE) 15:33:32 437.095 MHz 1200 baud AX-25 AFSK
UKube-1 03 Sep 15:34:01 15:36:54 18° 359° (N) 15:39:48 145.840 MHz, 145.915 MHz
JAS-1B 03 Sep 15:34:23 15:42:10 32° 278° (W) 15:48:57 435.800 - 435.900 CW/SSB
Oscar 11 03 Sep 15:36:04 15:38:51 17° 355° (N) 15:41:38 145.825 FM, Beacon 2401.500 USB
HO-68 03 Sep 15:47:46 15:54:14 39° 8° (N) 16:00:43 435.675 MHz FM
AO-Echo 03 Sep 15:49:45 15:52:06 13° 287° (WNW) 15:54:25 ?
PCSat 03 Sep 15:56:11 15:59:42 18° 116° (ESE) 16:03:14 145.825 MHz
FUNcube-1 03 Sep 16:13:02 16:15:53 17° 355° (N) 16:18:46 145.950 - 145.970 MHz USB
SO-67 03 Sep 16:14:38 16:17:32 25° 44° (NE) 16:20:25 435.3500 MHz FM
Gurwin Techsat 1B 03 Sep 16:17:27 16:21:01 18° 284° (WNW) 16:24:35 435.225 FM
OPAL 03 Sep 16:22:17 16:26:38 26° 91° (E) 16:30:59 ?
MaSat-1 03 Sep 16:33:04 16:38:15 89° 354° (N) 16:43:05 437.345 MHz
AO-7 03 Sep 16:33:59 16:41:46 42° 265° (W) 16:49:35 29.400 - 29.500 MHz
Hamsat 03 Sep 16:37:24 16:41:48 87° 66° (ENE) 16:46:13 145.90 MHz
JAS-2 03 Sep 16:38:09 16:43:38 89° 244° (WSW) 16:48:52 435.800 - 435.900 CW/SSB, 435.910 FM
Uosat F 03 Sep 16:40:21 16:44:47 31° 268° (W) 16:49:14 435.120 FM
RS-15 03 Sep 16:53:36 17:02:15 29° 250° (WSW) 17:11:06 29.354 - 29.394 USB, Beacon 29.352 USB
TMSAT-1 03 Sep 17:08:21 17:10:35 13° 293° (WNW) 17:12:50 436.925 FM
Sapphire 03 Sep 17:08:27 17:13:10 31° 131° (SE) 17:17:54 437.095 MHz 1200 baud AX-25 AFSK
UKube-1 03 Sep 17:08:41 17:12:00 22° 23° (NNE) 17:15:19 145.840 MHz, 145.915 MHz
Oscar 11 03 Sep 17:10:45 17:13:50 19° 19° (NNE) 17:16:56 145.825 FM, Beacon 2401.500 USB
JAS-1B 03 Sep 17:31:18 17:35:33 14° 305° (NW) 17:39:31 435.800 - 435.900 CW/SSB
HO-68 03 Sep 17:34:10 17:41:02 52° 34° (NE) 17:47:55 435.675 MHz FM
PCSat 03 Sep 17:36:57 17:41:57 39° 139° (SE) 17:46:58 145.825 MHz
SO-67 03 Sep 17:46:45 17:50:14 78° 66° (ENE) 17:53:44 435.3500 MHz FM
FUNcube-1 03 Sep 17:47:57 17:51:04 19° 18° (NNE) 17:54:13 145.950 - 145.970 MHz USB
OPAL 03 Sep 18:01:11 18:06:25 68° 114° (ESE) 18:11:39 ?
MaSat-1 03 Sep 18:10:15 18:15:22 82° 198° (SSW) 18:20:03 437.345 MHz
STRAND 1 03 Sep 18:12:46 18:16:48 23° 84° (E) 18:20:49 ?
Hamsat 03 Sep 18:14:24 18:18:17 30° 269° (W) 18:22:11 145.90 MHz
Uosat F 03 Sep 18:23:56 18:25:16 11° 292° (WNW) 18:26:36 435.120 FM
JAS-2 03 Sep 18:24:35 18:29:29 33° 268° (W) 18:34:11 435.800 - 435.900 CW/SSB, 435.910 FM
AO-7 03 Sep 18:31:41 18:37:12 19° 292° (WNW) 18:42:44 29.400 - 29.500 MHz
UKube-1 03 Sep 18:43:23 18:47:27 40° 45° (NE) 18:51:32 145.840 MHz, 145.915 MHz
Oscar 11 03 Sep 18:45:12 18:49:07 33° 42° (NE) 18:53:03 145.825 FM, Beacon 2401.500 USB
Sapphire 03 Sep 18:50:36 18:55:55 57° 155° (SSE) 19:01:15 437.095 MHz 1200 baud AX-25 AFSK
RS-15 03 Sep 19:08:00 19:10:20 11° 280° (W) 19:12:40 29.354 - 29.394 USB, Beacon 29.352 USB
PCSat 03 Sep 19:19:30 19:24:53 64° 163° (SSE) 19:30:17 145.825 MHz
SO-67 03 Sep 19:20:40 19:23:40 26° 267° (W) 19:26:41 435.3500 MHz FM
HO-68 03 Sep 19:21:19 19:28:31 89° 239° (WSW) 19:35:44 435.675 MHz FM
FUNcube-1 03 Sep 19:22:39 19:26:32 33° 41° (NE) 19:30:31 145.950 - 145.970 MHz USB
OPAL 03 Sep 19:40:14 19:45:20 54° 317° (NW) 19:50:25 ?
MaSat-1 03 Sep 19:47:22 19:52:09 47° 222° (SW) 19:56:30 437.345 MHz
STRAND 1 03 Sep 19:51:53 19:56:59 62° 107° (ESE) 20:02:04 ?
Hamsat 03 Sep 19:55:19 19:55:42 10° 292° (WNW) 19:56:04 145.90 MHz
JAS-2 03 Sep 20:14:40 20:16:27 12° 293° (WNW) 20:18:12 435.800 - 435.900 CW/SSB, 435.910 FM
UKube-1 03 Sep 20:19:09 20:23:31 77° 248° (WSW) 20:27:55 145.840 MHz, 145.915 MHz
Oscar 11 03 Sep 20:20:37 20:25:00 84° 64° (ENE) 20:29:26 145.825 FM, Beacon 2401.500 USB
Sapphire 03 Sep 20:33:42 20:39:08 71° 180° (S) 20:44:34 437.095 MHz 1200 baud AX-25 AFSK
